Flag for Switzerland Weather past 2 weeks in Ilanz, Graubünden, Switzerland

Now
73 °F

Mild.


Feels Like: 74 °F
Forecast: 64 / 90 °F
Wind: 1 mph from Southwest

Location: Chur-Ems

Current Time: Jul 7, 2015 at 1:15:05 AM

Latest Report: Jul 7, 2015 at 12:00 AM


Visibility: N/A

Pressure: 30.06 "Hg (27.72 "Hg at 703m altitude)

Humidity: 79%

Dew point: 66 °F

Location of IlanzLocation

Historic Weather in Ilanz — Graph

°F

Ilanz temperature yesterday

Maximum temperature yesterday: 85 °F (at 4:00 PM)
Minimum temperature yesterday: 67 °F (at 6:00 AM)
Average temperature yesterday: 76 °F

Past Weeks' High & Low Weather Summary

 TemperatureHumidityPressure
High94 °F (Jul 5, 2:00 PM)100% (Jul 4, 5:00 AM)30.26 "Hg (Jul 4, 5:00 AM)
Low50 °F (Jun 24, 6:00 AM)28% (Jun 30, 3:00 PM)29.76 "Hg (Jun 23, 12:00 AM)
Average71 °F58%30.08 "Hg
* Reported Jun 21 10:00 PM — Jul 6 10:00 PM, Ilanz, Weather by CustomWeather, © 2015

Note: Actual official high and low records may vary slightly from our data, if they occured in-between our weather recording intervals... More about our weather records

Advertising

Ilanz weather history for previous 24 hours

 ConditionsComfort  
Time TempWeatherWind HumidityBarometerVisibility
10:00 PM
Mon, Jul 6
78 °FWarm.5 mph64%30.03 "HgN/A
9:00 PM79 °FWarm.7 mph62%30.01 "HgN/A
8:00 PM80 °FScattered clouds.14 mph62%29.99 "Hg6 mi
7:00 PM83 °FWarm.13 mph58%29.98 "HgN/A
6:00 PM84 °FWarm.15 mph56%29.97 "HgN/A
4:00 PM85 °FWarm.16 mph53%29.99 "HgN/A
3:00 PM85 °FWarm.15 mph53%30.01 "HgN/A
2:00 PM84 °FHaze.17 mph53%30.03 "Hg9 mi
1:00 PM82 °FWarm.13 mph53%30.05 "HgN/A
12:00 PM79 °FWarm.12 mph60%30.08 "HgN/A
11:00 AM77 °FScattered clouds.1 mph57%30.10 "Hg7 mi
10:00 AM75 °FMild.2 mph58%30.13 "HgN/A
9:00 AM72 °FMild.1 mph64%30.16 "HgN/A
8:00 AM68 °FPartly sunny.1 mph70%30.17 "Hg6 mi
7:00 AM67 °FMild.5 mph74%30.19 "HgN/A
6:00 AM67 °FMild.3 mph75%30.15 "HgN/A
4:00 AM68 °FMild.2 mph70%30.13 "HgN/A
3:00 AM69 °FMild.5 mph66%30.11 "HgN/A
2:00 AM71 °FFog.8 mph61%30.10 "Hg4 mi
1:00 AM71 °FMild.8 mph62%30.10 "HgN/A
Weather by CustomWeather, © 2015

See weather overviewHow to use our weather pages